Simultaneous Nadir Overpasses (SNOs) Predictions

Prediction of SNOs between FY3D and AQUA Satellite Orbit:

Table of predicted SNOs for the next 14.0 days since TLE Epoch: 9/24/2022
Index Date (FY3D) Time (FY3D) Lat,Lon (FY3D) SZA (FY3D ) Date (AQUA) Time (AQUA) Lat,Lon (AQUA) SZA (AQUA ) Distance(km) Time Diff (sec)
1 09/24/2022 20:16:41 77.20,-138.66 78.14 09/24/2022 20:17:43 77.21,-138.70 78.13 1.02 62
2 09/24/2022 21:07:09 -76.43, 31.78 102.74 09/24/2022 21:06:52 -76.43, 31.74 102.74 1.14 17
3 09/27/2022 11:43:33 -76.76, 171.45 101.36 09/27/2022 11:43:51 -76.78, 171.36 101.35 2.79 18
4 09/27/2022 12:34:00 75.93, -18.16 77.72 09/27/2022 12:33:00 75.93, -18.21 77.73 1.67 60
5 09/30/2022 02:19:59 -77.18, -49.32 99.87 09/30/2022 02:20:51 -77.18, -49.35 99.88 0.71 52
6 09/30/2022 03:10:28 76.45, 120.92 79.31 09/30/2022 03:10:02 76.45, 120.92 79.31 0.18 26
7 10/02/2022 17:46:52 76.79, -99.44 80.70 10/02/2022 17:47:00 76.80, -99.47 80.70 0.78 8
8 10/02/2022 18:37:19 -75.96, 70.97 100.23 10/02/2022 18:36:08 -75.96, 70.96 100.22 0.20 71
9 10/05/2022 08:23:19 77.30, 39.37 82.28 10/05/2022 08:24:00 77.29, 39.45 82.26 2.24 41
10 10/05/2022 09:13:48 -76.58,-150.32 98.55 10/05/2022 09:13:10 -76.57,-150.22 98.55 2.77 38
11 10/07/2022 23:00:13 78.80, 172.19 85.17 10/07/2022 23:01:27 78.91, 172.50 85.23 13.97 74



Historial Predications of SNOs between FY3D and AQUA
